User: anonymous   Login
Location: Unspecified
(0.0000°N, 0.0000°E)
Time: 21:55:44
(UTC+00:00)
Language:

ISS - Orbit

View from above orbital plane
View from above orbital plane
View from above satellite
View from above satellite

Ground track
Ground track

The orbit data is extracted from the following two-line orbital elements,

1 25544U 98067A   15188.57596626  .00012462  00000-0  18504-3 0  9995
2 25544 051.6455 342.1993 0003273 130.6819 266.0204 15.55601041951218
Epoch (UTC): 07 July 2015 13:49:23
Eccentricity: 0.0003273
inclination: 51.6455°
perigee height: 398 km
apogee height: 402 km
right ascension of ascending node: 342.1993°
argument of perigee: 130.6819°
revolutions per day: 15.55601041
mean anomaly at epoch: 266.0204°
orbit number at epoch: 95121

The dashed part of the orbit path shows where the satellite is in the earth's shadow,  

DLR